Meteo Giornale » Osservazioni meteo Italia » Genova-Sestri

ore: 14:50 - Osservazioni Meteo Genova-Sestri
Lat. 44° 25' N Lon. 8° 51' E Alt. 2 metri s.l.m.

nuvoloso Europe/Rome

8 °C

Nuvoloso

Temp. 24 Ore

8 °C

10 °C

Nord

24 Km/h

Dew point -0 °C

Umidità 56 %

Visibilità  10 Km

Il sole sorge alle ore 07:11

Il sole tramonta alle ore 18:04

Data e Ora Cielo e Fenomeni T °C DP °C Um. % Pres. hPa Vis. km Vento km/h
Oggi h: 14:50 nuvoloso Nuvoloso 8 -0 56 1005 10 N 24
Oggi h: 14:20 nuvoloso Nuvoloso 8 -0 56 1005 10 N 16.7
Oggi h: 13:50 nuvoloso Nuvoloso 8 -1 52 1005 10 N 20.3
Oggi h: 13:20 nuvoloso Nuvoloso 9 -0 53 1005 10 N 16.7
Oggi h: 12:50 nuvoloso Nuvoloso 9 -1 49 1005 10 N/NE 13
Oggi h: 12:20 nuvoloso Nuvoloso 9 -1 49 1005 10 N 13
Oggi h: 11:50 nuvoloso Nuvoloso 9 -1 49 1005 10 N/NE 14.8
Oggi h: 11:20 nuvoloso Nuvoloso 9 -1 49 1005 10 N/NE 18.5
Oggi h: 10:50 nuvoloso Nuvoloso 9 -1 49 1005 10 N/NE 14.8
Oggi h: 10:20 nuvoloso Nuvoloso 8 -1 52 1005 10 N/NE 11.1
Oggi h: 09:50 nuvoloso Nuvoloso 8 -1 52 1005 10 N/NE 13
Oggi h: 09:20 nuvoloso Nuvoloso 8 -2 49 1004 10 N/NE 13
Oggi h: 08:50 nuvoloso Nuvoloso 8 -2 49 1004 10 N/NE 16.7
Oggi h: 08:20 nuvoloso Nuvoloso 8 -2 49 1004 10 N/NE 14.8
Oggi h: 07:50 nuvoloso Nuvoloso 8 -2 49 1004 10 N/NE 14.8
Oggi h: 07:20 nuvoloso Nuvoloso 8 -2 49 1004 10 N 16.7
Oggi h: 06:50 nuvoloso Nuvoloso 8 -1 52 1004 10 N/NE 9.3
Oggi h: 06:20 nuvoloso Nuvoloso 8 -1 52 1004 10 N 14.8
Oggi h: 05:50 nuvoloso Nuvoloso 8 -2 49 1004 10 N 14.8
Oggi h: 05:20 nuvoloso Nuvoloso 8 -1 52 1004 10 N 13
Oggi h: 04:50 nuvoloso Nuvoloso 8 -1 52 1004 10 N/NO 14.8
Oggi h: 04:20 nuvoloso Nuvoloso 9 -1 49 1004 10 N/NO 13
Oggi h: 03:50 nuvoloso Nuvoloso 9 -2 45 1004 10 N 13
Oggi h: 03:20 nuvoloso Nuvoloso 10 -3 39 1004 10 N/NE 16.7
Oggi h: 02:50 nuvoloso Nuvoloso 10 -3 39 1004 10 N 13
Oggi h: 02:20 nuvoloso Nuvoloso 10 -3 39 1005 10 N/NE 13
Oggi h: 01:50 nuvoloso Nuvoloso 9 -3 42 1005 10 NE 7.4
Oggi h: 01:20 nuvoloso Nuvoloso 10 -3 39 1005 10 N/NE 7.4
Oggi h: 00:50 nuvoloso Nuvoloso 9 -3 42 1006 10 N 5.5
Oggi h: 00:20 nuvoloso Nuvoloso 9 -3 42 1006 10 N 3.7
Ieri h: 23:50 nuvoloso Nuvoloso 9 -3 42 1006 10 N 5.5
Ieri h: 23:20 nuvoloso Nuvoloso 9 -3 42 1006 10 E 7.4
Ieri h: 22:50 nuvoloso Nuvoloso 9 -3 42 1006 10 E 7.4
Ieri h: 22:20 nuvoloso Nuvoloso 9 -3 42 1007 10 NE 7.4
Ieri h: 21:50 nuvoloso Nuvoloso 9 -4 39 1007 10 NE 9.3
Ieri h: 21:20 nuvoloso Nuvoloso 9 -5 36 1007 10 N 3.7
Ieri h: 20:50 nuvoloso Nuvoloso 9 -4 39 1007 10 E/SE 9.3
Ieri h: 20:20 nuvoloso Nuvoloso 9 -5 36 1006 10 N 5.5
Ieri h: 19:50 nuvoloso Nuvoloso 10 -6 31 1006 10 E/NE 11.1
Ieri h: 19:20 nuvoloso Nuvoloso 10 -5 34 1006 10 NE 7.4
Ieri h: 18:20 nuvoloso Nuvoloso 10 -4 36 1006 10 N 13
Ieri h: 17:50 nuvoloso Nuvoloso 9 -4 39 1006 10 N 14.8
Ieri h: 17:20 nuvoloso Nuvoloso 9 -3 42 1006 10 N 16.7
Ieri h: 16:50 nuvoloso Nuvoloso 9 -3 42 1006 10 N 13
Ieri h: 16:20 nuvoloso Nuvoloso 9 -3 42 1006 10 N 13
Ieri h: 15:50 nuvoloso Nuvoloso 9 -3 42 1006 10 N 25.9
Ieri h: 15:20 nuvoloso Nuvoloso 10 -2 42 1007 10 N 16.7
Ieri h: 14:50 poco_nuvoloso Poco Nuvoloso 10 -1 46 1007 10 N 24